Weather in Red'kino

Russia / Republic of Bashkortostan     55°48′45″N   54°30′44″E
temp.,
°C
wind,
m/s
gust,
m/s
humid.,
%
clouds,
%
prec.,
mm/h
press.,
hPa
HPBL,
m
21 january, thu
thu2123:00−23sw369794 0.1 1016130
02:00−20sw4897100 0.1 1017245
05:00−18sw4895100 0.3 1016255
08:00−18sw4996100 0.1 1016290
11:00−17wsw5994100 0.4 1016386
14:00−15wsw5893100 0.1 1016405
17:00−15wsw4994100 0.2 1015362
20:00−14wsw41094100 0.1 1016382
22 january, fri
fri2223:00−13wsw4895100 0.3 1015332
02:00−13wsw369698 0.4 1015170
05:00−13w369697 0.7 1015152
08:00−14w3496100 0.4 1016103
11:00−15wnw239796 0.5 101787
14:00−16nnw349596 0.1 1018213
17:00−21nnw239694 0.1 102025
20:00−24n229612 0.0 102320
23 january, sat
sat2323:00−25ne22966 0.0 102520
02:00−26ene129714 0.0 102819
05:00−26e229745 0.0 102919
08:00−25ese239683 0.0 103020
11:00−22se479592 0.0 1029188
14:00−18se5892100 0.0 1028303
17:00−15sse61095100 0.4 1026399
20:00−12sse51094100 0.8 1024492
24 january, sun
sun2423:00−11s51095100 1.6 1023453
02:00−9s5995100 1.1 1022367
05:00−6s4896100 2.5 1021275
08:00−4ssw5897100 0.9 1020263
11:00+1sw410100100 2.8 1020446
14:00+1wsw512100100 0.8 1020504
17:00+1wsw511100100 1.1 1021351
20:00+1wsw49100100 0.1 1022244
25 january, mon
mon2523:00+1wsw49100100 0.4 1023246
02:00+1wsw4999100 0.3 1024249
05:000wsw61097100 0.4 1025334
08:00−2wsw51095100 0.7 1026394
11:00−2sw499699 1.6 1027430
14:00−1sw5994100 0.3 1028512
17:00−1sw5991100 0.3 1028527
20:00−1sw5891100 0.0 1029483